sat.trackr.live / text

‹ back to catalog

STARLINK-11533 [DTC]

NORAD 62836 · 2025-019H

PAYLOAD ACTIVE UNKNOWN

§ Identity

Operator
Country
US
Launch date
2025-01-27
Launch site
AFETR
Launch vehicle
Mass (kg)
RCS (m²)

Purposes: comms

External: N2YO · Heavens-Above · Gunter

§ Orbital elements

Epoch: 2026-09-21T13:12:11.461824Z

Period
91.67 min
Inclination
43.0003°
Eccentricity
0.0000808
Mean motion
15.70910709 rev/d
Perigee alt
355.7 km
Apogee alt
356.8 km
Semi-major
6,734.4 km
B*
1.1158e-3
RAAN
205.4772°
Arg perigee
303.9395°
Mean anomaly
56.1395°
Rev number
9,468

§ Raw data

STARLINK-11533 [DTC]1 62836U 25019H   26264.55013266  .00145695  00000+0  11158-2 0  99972 62836  43.0003 205.4772 0000808 303.9395  56.1395 15.70910709 94687

JSON: /api/v1/satellites/62836 · /tle

For live sub-satellite position, see the globe view (requires WebGL).

§ Visibility from observer

Set your observer location to see the next 7 days of passes ≥ 10°. The values pass through the URL so the page stays shareable.

No JS? Fill the form by hand. The geolocation button needs JavaScript.